Reflectivity
18 12 15 21 19 21 22 -9 9 23 24 37 37 39 36 32 36 39 15 20 9 -4 -11 4 -4 -15 10 4 -9 -20 -20 -20 -20 -5 -20 -7 3 14
22 21 21 17 20 20 22 22 23 28 18 41 26 25 32 33 27 14 8 2 -9 -12 -20 -20 -20 -20 -20 -20 -20 -20 -20 -4 -15 -17 0 12 9 11
16 16 18 15 23 19 23 21 18 26 24 35 27 24 -1 11 2 -16 -20 -20 -20 -20 -20 -20 -20 -20 -20 -20 -20 -6 -4 -1 -10 -9 -9 -7 11 -2
8 0 5 13 11 16 19 27 -1 3 30 11 -3 -20 -20 -20 -20 -20 -20 -20 -20 -20 -20 -20 -20 -20 -20 -20 -20 -19 -1 2 -0 3 11 13 3 3
-7 -2 15 12 -5 17 1 15 30 -8 -20 -20 -20 -20 -20 -20 -20 -20 -20 -20 -20 -20 -20 -20 -20 -20 -20 -20 -20 -20 -20 -6 -3 6 8 -16 -20 -7
-13 -19 -1 -1 6 -14 16 7 4 -20 -20 -20 -20 -20 -20 -20 -20 -20 -20 -20 -20 -20 -20 -20 -20 -20 -20 -20 -20 -20 -20 -20 -20 -20 -20 -14 -18 -8
-20 -17 -12 16 28 13 10 -3 2 0 1 8 -14 -16 -20 -20 -20 -20 -20 -20 -20 -20 -20 -20 -20 -20 -20 -20 -20 -20 -20 -20 -20 -20 -5 -6 10 11
0 10 25 26 32 33 20 8 15 -18 -20 -20 -20 -16 -20 -20 -20 -20 -20 -20 -20 -20 -20 -20 -20 -20 -20 -20 -20 -20 -20 -20 -20 -1 2 9 9 0
18 29 13 1 11 -18 -5 -7 -20 -12 -17 -17 -20 -20 -20 -20 -20 -20 -20 -20 -20 -20 -20 -20 -20 -20 -20 -20 -20 -20 -20 -20 -20 -20 -3 -7 2 12
-20 -20 -20 -20 -20 -20 -20 -20 -20 -20 -20 -20 -20 -20 -20 -20 -20 -20 -20 -20 -20 -20 -20 -20 -20 -20 -20 -20 -20 -20 -20 -20 -20 -20 -20 -1 8 11
-20 -20 -20 -20 -20 -20 -20 -20 -20 -20 -20 -20 -20 -20 -20 -20 -20 -20 -20 -20 -20 -20 -20 -20 -20 -20 -20 -20 -20 -20 -20 -20 -20 -20 -20 -17 -4 -0
-20 -20 -20 -20 -20 -20 -20 -20 -20 -20 -20 -20 -20 -20 -20 -20 -20 -20 -20 -20 -20 -20 -20 -20 -20 -20 -20 -20 -20 -20 -20 -20 -20 -20 -20 -17 -12 -10
-20 -20 -20 -20 -20 -20 -20 -20 -20 -20 -20 -20 -20 -20 -20 -20 -20 -20 -20 -20 -20 -20 -20 -7 -20 -20 -18 -20 -20 -20 -20 -20 -20 -20 -20 -20 -12 -8
-20 -20 -20 -20 -20 -20 -20 -20 -20 -20 -20 -20 -20 -20 -20 -20 -20 -20 -20 -20 -20 -20 -20 -19 -6 -19 -20 -20 -20 -20 -20 -20 -20 -20 -20 -20 -17 -16
-20 -20 -20 -20 -20 -20 -20 -20 -20 -20 -20 -20 -20 -20 -20 -20 -20 -20 -20 -20 -20 -20 -20 -20 -18 -19 -12 -17 -20 -20 -20 -20 -20 -20 -20 -20 -20 -20
-20 -20 -20 -20 -20 -20 -20 -20 -20 -20 -20 -20 -20 -20 -20 -20 -20 -20 -20 -20 -20 -20 -20 -20 -19 -20 -17 -19 -18 -20 -20 -20 -20 -20 -20 -20 -20 -20
-20 -20 -20 -20 -20 -20 -20 -20 -20 -20 -20 -20 -20 -20 -20 -20 -20 -20 -20 -20 -20 -20 -20 -20 -20 -20 -20 -20 -20 -20 -20 -20 -20 -20 -20 -20 -18 -13
-20 -20 -20 -20 -20 -20 -20 -20 -20 -20 -20 -20 -20 -20 -20 -20 -20 -20 -20 -20 -20 -20 -20 -20 -20 -20 -20 -20 -20 -20 -20 -20 -20 -20 -20 -20 -20 -20
-20 -20 -20 -20 -20 -20 -20 -20 -20 -20 -20 -20 -20 -20 -20 -20 -19 -20 -20 -20 -20 -20 -20 -20 -20 -13 -15 -20 -20 -20 -20 -20 -20 -20 -20 -20 -20 -20
-20 -20 -20 -20 -20 -20 -20 -20 -20 -20 -20 -20 -20 -20 -20 -20 -20 -20 -20 -20 -20 -20 -20 -20 -20 -20 -19 -19 -5 -20 -20 -20 -19 -10 -20 -20 -20 -20
-20 -20 -20 -20 -20 -20 -20 -20 -20 -20 -20 -20 -20 -20 -20 -20 -20 -20 -20 -20 -12 -20 -20 -20 -20 -20 -20 -13 2 -20 -20 -20 -20 -6 0 -3 -19 -20
-20 -20 -20 -20 -20 -20 -20 -20 -20 -20 -20 -20 -20 -20 -20 -20 -20 -20 -20 -20 -20 -20 -20 -20 -20 -20 -20 -4 -20 -20 -20 -20 -20 -13 -2 8 14 13
-20 -20 -20 -20 -20 -20 -20 -20 -20 -20 -20 -20 -20 -20 -20 -20 -20 -20 -20 -20 -20 -20 -20 -20 -20 -20 -20 -20 -19 -14 -20 -20 -20 -20 5 13 -2 -6
Wind_Speed
4 6 5 3 4 3 3 3 4 3 4 4 5 4 5 1 2 3 2 7 11 14 15 16 15 15 16 17 17 18 18 18 19 19 19 19 20 21
5 7 6 4 5 4 3 2 1 3 3 1 2 2 2 4 6 4 7 11 14 14 14 14 15 16 17 18 18 19 19 19 20 20 19 19 20 20
7 7 8 6 5 4 3 3 2 1 3 1 0 3 4 4 4 5 5 5 5 14 13 14 15 16 17 19 19 19 19 19 20 20 20 20 20 21
8 8 8 5 6 4 3 3 3 3 2 4 2 4 4 3 3 3 5 4 5 8 14 14 15 15 16 18 18 18 18 19 20 20 20 21 22 22
7 7 6 6 5 4 3 5 1 4 2 2 2 1 2 2 3 5 5 5 4 9 12 14 15 17 18 17 17 18 18 19 19 20 19 20 20 21
9 8 6 6 4 6 4 3 2 2 2 2 1 1 2 4 2 4 3 1 3 4 9 14 14 15 16 18 21 19 19 19 18 17 18 19 21 22
9 9 7 8 8 5 4 2 3 1 2 2 0 1 1 2 2 2 1 3 4 3 4 3 3 7 8 14 16 18 18 18 18 19 20 22 22 23
8 8 6 7 5 4 5 5 2 1 1 1 1 2 3 1 2 2 0 2 4 2 3 9 3 7 8 6 15 20 20 20 20 21 22 22 22 22
6 5 5 3 3 1 2 1 3 3 4 2 2 2 2 1 1 2 2 3 5 6 3 11 5 6 7 8 18 22 22 23 22 20 19 19 19 21
5 5 4 4 3 2 3 3 1 3 4 0 1 3 2 4 1 3 3 3 5 4 2 7 3 7 8 6 18 22 20 19 18 20 21 21 21 20
4 3 0 3 3 5 4 5 4 3 5 7 8 9 10 10 8 1 2 2 6 4 4 3 3 5 9 9 6 13 16 20 23 21 22 22 22 23
3 4 5 4 6 7 4 4 4 3 3 5 5 5 7 6 9 1 3 2 4 4 2 4 4 3 7 3 3 7 6 15 21 22 23 22 22 9
3 2 2 4 6 6 6 2 3 3 5 4 4 4 4 4 3 3 2 0 3 6 6 6 4 7 4 8 4 3 8 7 8 12 18 20 18 15
2 2 3 6 6 6 4 6 7 6 3 3 2 2 2 3 3 4 7 6 6 9 10 7 5 7 8 11 12 6 8 9 8 8 8 13 18 19
1 2 4 6 6 6 6 6 4 3 2 2 2 2 4 4 4 4 4 5 6 7 8 9 9 10 8 10 12 11 12 9 9 8 5 8 9 9
4 4 4 4 5 3 2 3 1 1 1 2 2 5 5 4 5 3 4 5 7 7 7 9 8 9 9 10 11 14 11 8 9 11 10 9 9 10
3 2 2 1 2 3 2 3 3 2 2 2 3 4 5 5 5 4 4 6 6 8 8 6 7 10 11 14 13 11 12 12 10 11 11 11 10 9
2 2 1 2 1 2 2 3 3 4 3 2 3 4 4 5 6 5 5 6 8 8 8 8 9 8 8 9 19 12 10 10 10 10 10 12 13 9
1 1 1 1 1 1 2 3 3 3 2 3 3 4 5 5 8 6 7 7 7 8 8 8 8 8 10 12 8 14 10 11 11 12 10 10 13 12
2 2 2 2 2 2 3 5 3 3 4 4 5 5 5 5 6 6 6 8 8 9 9 8 7 8 9 12 14 14 18 12 9 11 11 10 12 24
2 2 2 2 2 3 3 5 6 6 6 4 4 6 6 6 7 6 8 15 15 9 11 10 10 21 11 11 10 12 8 14 16 13 12 11 12 13
2 2 3 2 3 3 3 3 4 4 6 6 6 6 5 6 7 8 8 9 9 9 11 11 12 9 9 10 14 17 12 11 13 19 21 20 11 9
3 3 3 3 3 3 3 3 3 4 4 8 7 6 7 7 7 8 8 9 10 10 12 12 10 9 10 11 17 14 18 15 12 13 12 17 21 25
Wind_Direction
103 112 111 82 77 80 91 114 142 176 218 207 179 165 199 93 211 254 338 290 288 285 282 281 294 292 292 294 296 296 295 294 292 292 291 289 290 296
84 100 101 97 86 85 106 106 107 154 147 31 247 127 190 182 229 259 260 273 277 277 285 294 299 299 299 297 294 292 293 293 292 290 290 291 290 297
82 94 95 96 94 93 80 77 103 311 84 242 359 186 220 224 249 242 252 253 274 288 296 295 297 298 294 289 288 291 291 290 290 290 290 292 292 289
96 100 109 112 95 89 87 77 88 117 129 174 165 208 221 217 211 263 268 264 256 284 295 294 297 296 294 294 293 291 290 291 292 293 293 292 290 289
95 96 97 104 110 105 88 107 257 98 123 108 118 69 227 255 275 256 244 246 273 284 307 308 308 303 297 292 294 293 293 292 291 288 287 286 285 285
96 98 96 102 98 99 82 101 146 112 121 114 114 273 266 271 235 247 295 334 304 330 315 299 311 309 311 308 303 304 302 297 290 285 281 279 279 280
70 78 75 88 107 120 127 195 191 227 98 83 44 256 276 302 271 323 348 340 303 258 287 318 328 305 295 299 295 293 289 286 287 287 286 284 283 281
95 84 66 64 78 69 53 44 25 191 179 149 186 246 264 324 0 37 309 347 314 313 358 306 288 289 276 272 282 294 298 297 293 290 291 288 282 278
92 92 100 82 70 343 279 214 245 263 264 220 241 267 300 3 174 314 273 232 262 294 311 293 292 268 280 287 297 298 300 304 299 297 294 292 288 283
100 109 136 175 167 269 309 296 260 309 282 303 117 277 280 288 237 208 228 275 289 289 295 278 330 292 294 285 293 299 302 301 303 305 304 297 289 284
110 140 23 59 45 11 27 360 347 339 4 348 323 305 294 289 283 77 328 29 309 308 284 246 299 314 301 289 276 294 313 313 309 305 303 301 299 293
166 128 73 52 16 360 20 356 347 318 345 321 326 324 313 309 308 256 174 193 294 308 275 353 328 350 316 281 332 306 290 302 306 306 302 298 303 299
84 69 57 23 351 337 333 345 262 308 335 330 321 336 337 353 7 352 22 246 283 259 284 321 319 312 268 302 296 291 289 293 295 297 292 296 296 289
64 54 15 343 334 330 340 318 327 335 317 312 338 323 325 330 333 325 305 289 264 266 285 275 267 274 276 285 289 299 291 286 272 275 285 284 285 285
129 323 339 342 340 349 336 319 332 328 343 20 335 296 330 319 302 280 265 265 264 266 277 273 264 276 266 267 278 284 292 301 285 274 263 270 273 270
30 330 308 315 326 308 329 338 353 302 193 221 272 324 319 310 310 299 303 307 299 295 262 253 244 252 271 263 264 278 283 281 293 287 280 276 273 264
345 321 335 4 2 353 355 353 5 5 33 327 339 330 313 308 305 305 288 289 283 301 307 298 271 253 253 264 274 272 281 281 276 281 284 280 277 269
359 308 337 5 350 350 345 341 337 339 338 340 308 281 291 299 294 284 274 277 286 297 300 298 296 291 278 260 249 270 269 270 281 284 282 284 286 283
274 323 324 280 250 263 288 305 305 304 291 278 280 285 281 277 304 298 289 281 280 287 289 289 288 291 297 295 286 267 281 286 286 280 275 270 278 282
211 210 257 273 273 258 291 292 288 291 292 276 270 270 273 274 277 275 278 281 281 285 290 291 281 277 277 286 292 294 267 273 275 277 280 274 268 275
275 265 238 247 250 245 258 277 284 285 281 272 279 275 273 274 278 274 279 291 293 290 288 286 279 286 288 284 280 287 284 255 266 277 283 281 287 289
247 246 253 245 242 239 252 251 276 276 289 284 278 277 274 268 276 279 276 281 283 280 282 284 289 287 284 288 289 293 292 296 292 283 275 267 279 279
232 232 248 249 247 248 245 252 250 258 263 287 283 281 278 277 277 276 276 274 275 282 285 287 286 276 280 281 283 290 294 295 301 303 289 279 274 270